DW0148 Weather Reports


time (UTC)temp
C
wind
direction
speed
KPH
gust
KPH
rain 1hr
cm
rain 24hr
cm
rain mn
cm
humidity
%
barometer
mb
20180120090245 0 5 0.0 1.6 0.00 0.03 0.00 78 1027.6
20180120085745 0 5 0.0 1.6 0.00 0.03 0.00 77 1027.6
20180120085243 0 5 0.0 0.0 0.00 0.03 0.00 78 1027.6
20180120084742 0 5 0.0 0.0 0.00 0.03 0.00 78 1027.6
20180120084241 0 5 0.0 1.6 0.00 0.03 0.00 78 1027.6
20180120083740 0 4 0.0 1.6 0.00 0.03 0.00 78 1027.6
20180120083239 0 5 0.0 1.6 0.00 0.03 0.00 77 1027.6
20180120082738 0 4 0.0 1.6 0.00 0.03 0.00 78 1027.6
20180120082238 0 348 0.0 1.6 0.00 0.03 0.00 77 1027.6
20180120081736 0 348 0.0 1.6 0.00 0.03 0.00 75 1027.6
20180120081133 0 348 0.0 1.6 0.00 0.03 0.00 78 1027.6
20180120080632 0 349 0.0 1.6 0.00 0.03 0.00 78 1027.6
20180120080131 0 18 0.0 0.0 0.00 0.03 0.00 77 1027.6
20180120075630 0 18 0.0 1.6 0.00 0.03 0.00 77 1027.6
20180120075129 0 18 0.0 1.6 0.00 0.03 0.00 78 1027.6
20180120074558 0 18 0.0 1.6 0.00 0.03 0.00 77 1027.6
20180120074056 0 18 0.0 1.6 0.00 0.03 0.00 77 1027.6
20180120073556 0 8 0.0 1.6 0.00 0.03 0.00 77 1027.6
20180120073055 0 8 0.0 1.6 0.00 0.03 0.00 77 1027.6
20180120072554 0 8 1.6 1.6 0.00 0.03 0.00 76 1027.3
20180120072053 0 8 0.0 1.6 0.00 0.03 0.00 76 1027.6
20180120071552 0 22 1.6 1.6 0.00 0.03 0.00 75 1027.6
20180120071051 0 52 0.0 0.0 0.00 0.03 0.00 77 1027.6
20180120070550 0 53 0.0 0.0 0.00 0.03 0.00 78 1027.6
20180120070049 0 52 0.0 0.0 0.00 0.03 0.00 78 1027.3
20180120065548 0 52 0.0 0.0 0.00 0.03 0.00 78 1027.3
20180120065047 0 52 0.0 0.0 0.00 0.03 0.00 76 1027.3
20180120064546 0 52 0.0 0.0 0.00 0.03 0.00 77 1027.3
20180120064045 0 52 0.0 0.0 0.00 0.03 0.00 78 1027.3
20180120063544 0 52 0.0 0.0 0.00 0.03 0.00 78 1027.3
20180120063043 0 51 0.0 0.0 0.00 0.03 0.00 78 1027.6
20180120062511 0 51 0.0 0.0 0.00 0.03 0.00 78 1027.6
20180120061940 0 51 0.0 0.0 0.00 0.03 0.00 79 1027.6
20180120061438 0 51 0.0 1.6 0.00 0.03 0.00 78 1027.6
20180120060937 0 51 0.0 1.6 0.00 0.03 0.00 78 1027.6
20180120060436 0 51 0.0 1.6 0.00 0.03 0.00 77 1027.6
20180120055935 0 51 1.6 1.6 0.00 0.03 0.00 77 1027.3
20180120055434 0 57 0.0 0.0 0.00 0.03 0.00 75 1027.3
20180120054902 -1 56 0.0 0.0 0.00 0.03 0.00 74 1027.3
20180120054401 -1 57 0.0 0.0 0.00 0.03 0.00 76 1027.3
20180120053900 -1 57 0.0 0.0 0.00 0.03 0.00 76 1027.3
20180120053359 -1 56 0.0 0.0 0.00 0.03 0.00 76 1027.3
20180120052858 -1 56 0.0 1.6 0.00 0.03 0.00 76 1027.3
20180120052357 -1 56 0.0 1.6 0.00 0.03 0.00 78 1027.3
20180120051856 -1 56 0.0 1.6 0.00 0.03 0.00 77 1027.3
20180120051355 -1 55 0.0 1.6 0.00 0.03 0.00 79 1027.3
20180120050854 -1 56 0.0 1.6 0.00 0.03 0.00 80 1027.6
20180120050353 -1 56 0.0 1.6 0.00 0.03 0.00 79 1027.6
20180120045852 -1 56 0.0 1.6 0.00 0.03 0.03 80 1027.6
20180120045351 -1 74 0.0 1.6 0.00 0.03 0.03 79 1027.6
20180120044851 -1 74 0.0 1.6 0.00 0.03 0.03 78 1027.3
20180120044350 -1 74 0.0 1.6 0.00 0.03 0.03 80 1027.6
20180120043849 -2 74 0.0 1.6 0.00 0.03 0.03 79 1027.6
20180120043348 -2 74 1.6 1.6 0.00 0.03 0.03 79 1027.6
20180120042847 -2 73 0.0 1.6 0.00 0.03 0.03 79 1027.6
20180120042346 -2 74 1.6 1.6 0.00 0.03 0.03 81 1027.6
20180120041814 -2 74 0.0 1.6 0.00 0.03 0.03 81 1027.6
20180120041313 -3 74 1.6 1.6 0.00 0.03 0.03 81 1027.6
20180120040812 -3 74 1.6 1.6 0.00 0.03 0.03 81 1027.6
20180120040311 -3 74 0.0 0.0 0.00 0.03 0.03 82 1027.6
20180120035810 -3 74 0.0 0.0 0.00 0.03 0.03 82 1027.6
20180120035309 -3 74 0.0 0.0 0.00 0.03 0.03 81 1027.6
20180120034808 -3 74 0.0 1.6 0.00 0.03 0.03 82 1027.6
20180120034307 -3 74 0.0 1.6 0.00 0.03 0.03 81 1027.6
20180120033704 -3 74 0.0 1.6 0.00 0.03 0.03 80 1027.3
20180120033203 -3 73 0.0 1.6 0.00 0.03 0.03 79 1027.3
20180120032701 -3 74 0.0 1.6 0.00 0.03 0.03 79 1027.3
20180120032130 -3 74 1.6 1.6 0.00 0.03 0.03 80 1026.9
20180120031628 -3 72 0.0 4.8 0.00 0.03 0.03 80 1026.9
20180120031128 -3 72 0.0 4.8 0.00 0.03 0.03 79 1026.9
20180120030627 -3 77 0.0 1.6 0.00 0.03 0.03 79 1026.9
20180120030126 -3 77 1.6 1.6 0.00 0.03 0.03 80 1026.9
20180120025625 -3 77 0.0 1.6 0.00 0.03 0.03 78 1026.9
20180120025124 -3 77 0.0 1.6 0.00 0.03 0.03 78 1026.9
20180120024623 -3 77 1.6 1.6 0.00 0.03 0.03 78 1026.9
20180120024122 -3 77 0.0 1.6 0.00 0.03 0.03 78 1026.6
20180120023621 -3 77 0.0 1.6 0.00 0.03 0.03 78 1026.6
20180120023120 -3 80 1.6 1.6 0.00 0.03 0.03 78 1026.6
20180120022619 -3 80 0.0 0.0 0.00 0.03 0.03 78 1026.6
20180120022118 -3 80 0.0 1.6 0.00 0.03 0.03 78 1026.6
20180120021617 -3 80 0.0 1.6 0.00 0.03 0.03 77 1026.6
20180120021116 -3 81 0.0 1.6 0.00 0.03 0.03 76 1026.6
20180120020615 -3 81 1.6 1.6 0.00 0.03 0.03 75 1026.6
20180120020114 -2 82 1.6 1.6 0.00 0.03 0.03 75 1026.6
20180120015613 -2 82 0.0 1.6 0.00 0.03 0.03 73 1026.6
20180120015112 -2 82 0.0 1.6 0.00 0.03 0.03 72 1026.2
20180120014611 -2 82 1.6 1.6 0.00 0.03 0.03 73 1026.2
20180120014110 -2 82 1.6 1.6 0.00 0.03 0.03 75 1026.2
20180120013609 -3 82 1.6 1.6 0.00 0.03 0.03 76 1026.2
20180120013109 -2 82 1.6 1.6 0.00 0.03 0.03 77 1026.2
20180120012607 -3 82 1.6 1.6 0.00 0.03 0.03 77 1026.6
20180120012107 -3 82 1.6 1.6 0.00 0.03 0.03 76 1026.6
20180120011535 -2 82 0.0 0.0 0.00 0.03 0.03 76 1026.6
20180120011034 -2 82 0.0 1.6 0.00 0.03 0.03 76 1026.6
20180120010533 -2 82 0.0 1.6 0.00 0.03 0.03 75 1026.6
20180120010031 -2 82 0.0 1.6 0.00 0.03 0.03 75 1026.9
20180120005531 -2 82 1.6 1.6 0.00 0.03 0.03 74 1026.6
20180120005030 -2 82 0.0 1.6 0.00 0.03 0.03 74 1026.6
20180120004529 -2 82 1.6 1.6 0.00 0.03 0.03 74 1026.6
20180120004028 -2 82 0.0 0.0 0.00 0.03 0.03 73 1026.6
20180120003527 -2 82 0.0 1.6 0.00 0.03 0.03 73 1026.6
20180120003026 -2 82 0.0 1.6 0.00 0.03 0.03 74 1026.6
20180120002525 -2 82 1.6 1.6 0.00 0.03 0.03 72 1026.6
20180120002024 -2 82 1.6 1.6 0.00 0.03 0.03 73 1026.6
20180120001523 -2 82 1.6 1.6 0.00 0.03 0.03 73 1026.6
20180120001023 -1 82 0.0 1.6 0.00 0.03 0.03 71 1026.6
20180120000522 -1 82 1.6 1.6 0.00 0.03 0.03 70 1026.6
20180120000021 -1 82 0.0 1.6 0.00 0.03 0.03 69 1026.6
20180119235520 -1 82 0.0 1.6 0.00 0.03 0.03 69 1026.2
20180119235019 -1 82 1.6 1.6 0.00 0.03 0.03 68 1026.2
20180119234518 -1 82 1.6 1.6 0.00 0.03 0.03 66 1026.2
20180119233913 0 82 1.6 1.6 0.00 0.03 0.03 65 1026.2
20180119233340 0 82 1.6 1.6 0.00 0.03 0.03 65 1026.2
20180119232839 0 82 0.0 1.6 0.00 0.03 0.03 65 1026.2
20180119232339 0 82 0.0 1.6 0.00 0.03 0.03 63 1026.2
20180119231838 0 82 0.0 1.6 0.00 0.03 0.03 63 1026.2
20180119231337 0 82 0.0 1.6 0.00 0.03 0.03 63 1026.2
20180119230836 0 82 1.6 1.6 0.00 0.03 0.03 61 1026.2
20180119230335 1 82 0.0 1.6 0.00 0.03 0.03 60 1026.2
20180119225834 1 82 0.0 1.6 0.00 0.03 0.03 58 1026.2
20180119225333 2 82 0.0 1.6 0.00 0.03 0.03 55 1026.2
20180119224832 2 82 1.6 1.6 0.00 0.03 0.03 52 1026.2
20180119224331 3 82 1.6 1.6 0.00 0.03 0.03 50 1026.2
20180119223830 3 82 1.6 4.8 0.00 0.03 0.03 46 1026.2
20180119223329 5 82 1.6 4.8 0.00 0.03 0.03 44 1026.2
20180119222828 5 67 0.0 6.4 0.00 0.03 0.03 42 1026.2
20180119222327 6 87 1.6 6.4 0.00 0.03 0.03 40 1026.2
20180119221826 6 106 1.6 8.0 0.00 0.03 0.03 37 1026.6
20180119221325 7 114 1.6 8.0 0.00 0.03 0.03 34 1026.6
20180119220824 7 159 1.6 6.4 0.00 0.03 0.03 33 1026.6
20180119220322 7 161 3.2 8.0 0.00 0.03 0.03 33 1026.6
20180119215750 7 210 4.8 8.0 0.00 0.03 0.03 30 1026.6
20180119215249 7 203 3.2 8.0 0.00 0.03 0.03 33 1026.9
20180119214748 8 190 3.2 9.7 0.00 0.03 0.03 33 1026.9
20180119214216 8 211 1.6 4.8 0.00 0.03 0.03 33 1026.9
20180119213643 8 217 1.6 4.8 0.00 0.03 0.03 33 1026.9
20180119213142 8 217 1.6 4.8 0.00 0.03 0.03 33 1026.9
20180119212641 8 221 3.2 4.8 0.00 0.03 0.03 37 1026.9
20180119212140 7 192 1.6 6.4 0.00 0.03 0.03 36 1026.9
20180119211640 7 224 3.2 6.4 0.00 0.03 0.03 34 1026.9
20180119211139 7 225 1.6 4.8 0.00 0.03 0.03 33 1026.9
20180119210638 7 223 3.2 6.4 0.00 0.03 0.03 33 1026.9
20180119210137 7 222 3.2 6.4 0.00 0.03 0.03 34 1026.9
20180119205635 7 222 1.6 3.2 0.00 0.03 0.03 34 1026.9
20180119205134 7 241 0.0 4.8 0.00 0.03 0.03 34 1026.9
20180119204634 7 284 3.2 4.8 0.00 0.03 0.03 35 1026.9
20180119204133 7 250 1.6 6.4 0.00 0.03 0.03 35 1026.9
20180119203530 7 302 1.6 6.4 0.00 0.03 0.03 34 1027.3
20180119202957 7 255 1.6 8.0 0.00 0.03 0.03 33 1027.3
20180119202425 7 306 1.6 8.0 0.00 0.03 0.03 34 1027.3
20180119201924 7 246 1.6 4.8 0.00 0.03 0.03 34 1027.3
20180119201423 7 162 1.6 8.0 0.00 0.03 0.03 36 1027.3
20180119200851 7 182 3.2 8.0 0.00 0.03 0.03 35 1027.3
20180119200350 7 227 3.2 9.7 0.00 0.03 0.03 35 1027.6
20180119195849 7 220 3.2 9.7 0.00 0.03 0.03 35 1027.6
20180119195348 7 239 3.2 8.0 0.00 0.03 0.03 35 1027.6
20180119194847 6 267 3.2 6.4 0.00 0.03 0.03 37 1027.6
20180119194315 6 220 3.2 6.4 0.00 0.03 0.03 39 1027.6
20180119193814 6 297 1.6 4.8 0.00 0.03 0.03 37 1027.6
20180119193313 6 274 1.6 6.4 0.00 0.03 0.03 38 1027.6
20180119192811 6 256 1.6 8.0 0.00 0.03 0.03 40 1027.6
20180119192310 6 283 1.6 8.0 0.00 0.03 0.03 40 1027.6
20180119191738 6 248 3.2 9.7 0.00 0.03 0.03 39 1027.9
20180119191237 6 169 3.2 9.7 0.00 0.03 0.03 40 1027.9
20180119190736 5 191 3.2 6.4 0.00 0.03 0.03 42 1027.9
20180119190235 5 307 1.6 6.4 0.03 0.03 0.03 42 1028.3
20180119185734 5 226 3.2 8.0 0.03 0.03 0.03 44 1028.3
20180119185233 5 240 3.2 8.0 0.03 0.03 0.03 43 1028.3
20180119184732 5 269 3.2 8.0 0.03 0.03 0.03 44 1028.6
20180119184231 5 234 3.2 9.7 0.03 0.03 0.03 46 1028.6
20180119183730 5 197 3.2 9.7 0.03 0.03 0.03 45 1028.6
20180119183229 5 238 3.2 8.0 0.03 0.03 0.03 47 1028.6
20180119182728 4 198 3.2 8.0 0.03 0.03 0.03 50 1028.6
20180119182227 4 227 3.2 8.0 0.03 0.03 0.03 50 1028.6
20180119181726 4 161 4.8 8.0 0.03 0.03 0.03 48 1028.6
20180119181225 3 153 4.8 9.7 0.03 0.03 0.03 49 1029.0
20180119180653 3 198 3.2 12.9 0.03 0.03 0.03 50 1029.0
20180119180153 3 149 4.8 12.9 0.00 0.00 0.00 50 1029.3
20180119175652 3 182 4.8 12.9 0.00 0.00 0.00 51 1029.3
20180119175150 3 152 6.4 12.9 0.00 0.00 0.00 50 1029.6
20180119174650 3 162 3.2 9.7 0.00 0.00 0.00 52 1029.6
20180119174149 2 159 6.4 9.7 0.00 0.00 0.00 55 1029.6
20180119173648 2 284 3.2 6.4 0.00 0.00 0.00 54 1030.0
20180119173147 2 266 3.2 8.0 0.00 0.00 0.00 57 1030.0
20180119172646 2 180 3.2 8.0 0.00 0.00 0.00 59 1030.0
20180119172146 2 135 3.2 9.7 0.00 0.00 0.00 59 1030.0
20180119171644 2 163 3.2 9.7 0.00 0.00 0.00 60 1030.3
20180119171143 2 229 3.2 6.4 0.00 0.00 0.00 57 1030.3
20180119170642 1 191 3.2 6.4 0.00 0.00 0.00 58 1030.3
20180119170141 1 168 3.2 6.4 0.00 0.00 0.00 59 1030.6
20180119165640 1 216 3.2 6.4 0.00 0.00 0.00 57 1030.6
20180119165139 1 200 3.2 8.0 0.00 0.00 0.00 57 1030.6
20180119164638 1 242 1.6 8.0 0.00 0.00 0.00 59 1031.0
20180119164137 1 187 3.2 8.0 0.00 0.00 0.00 59 1031.0
20180119163636 0 165 3.2 8.0 0.00 0.00 0.00 59 1031.0
20180119163104 0 163 3.2 6.4 0.00 0.00 0.00 61 1031.3
20180119162603 0 193 3.2 8.0 0.00 0.00 0.00 62 1031.3
20180119162102 0 203 3.2 9.7 0.00 0.00 0.00 63 1031.3
20180119161601 0 181 3.2 9.7 0.00 0.00 0.00 65 1031.3
20180119161100 0 224 3.2 6.4 0.00 0.00 0.00 64 1031.7
20180119160559 0 135 3.2 4.8 0.00 0.00 0.00 67 1031.3
20180119160058 0 236 1.6 4.8 0.00 0.00 0.00 70 1031.7
20180119155556 0 238 1.6 4.8 0.00 0.00 0.00 70 1031.7
20180119155055 0 6 1.6 6.4 0.00 0.00 0.00 70 1031.7
20180119154555 -1 224 1.6 6.4 0.00 0.00 0.00 73 1031.7
20180119154054 -2 275 1.6 6.4 0.00 0.00 0.00 75 1031.7
20180119153523 -2 349 1.6 6.4 0.00 0.00 0.00 77 1031.7
20180119153021 -2 347 3.2 8.0 0.00 0.00 0.00 80 1031.7
20180119152520 -2 338 3.2 8.0 0.00 0.00 0.00 80 1031.7
20180119152019 -3 2 3.2 6.4 0.00 0.00 0.00 82 1031.7
20180119151518 -3 272 1.6 1.6 0.00 0.00 0.00 84 1031.7
20180119151017 -4 274 1.6 1.6 0.00 0.00 0.00 86 1031.7
20180119150516 -4 343 1.6 3.2 0.00 0.00 0.00 87 1031.7
20180119150015 -5 32 1.6 4.8 0.00 0.00 0.00 88 1031.7
20180119145514 -5 355 1.6 4.8 0.00 0.00 0.00 89 1031.7
20180119145014 -5 355 3.2 6.4 0.00 0.00 0.00 90 1031.7
20180119144510 -6 37 1.6 6.4 0.00 0.00 0.00 91 1032.0
20180119144009 -6 346 4.8 6.4 0.00 0.00 0.00 92 1032.0
20180119143508 -6 331 1.6 4.8 0.00 0.00 0.00 92 1032.0
20180119143006 -7 342 1.6 4.8 0.00 0.00 0.00 91 1032.0
20180119142434 -7 8 3.2 4.8 0.00 0.00 0.00 91 1032.0
20180119141932 -7 13 1.6 1.6 0.00 0.00 0.00 92 1032.0
20180119141431 -8 56 1.6 1.6 0.00 0.00 0.00 91 1032.0
20180119140930 -8 56 0.0 1.6 0.00 0.00 0.00 91 1032.0
20180119140429 -8 57 0.0 1.6 0.00 0.00 0.00 91 1032.0
20180119135928 -9 57 1.6 1.6 0.00 0.00 0.00 90 1032.0
20180119135427 -9 56 0.0 1.6 0.00 0.00 0.00 90 1032.3
20180119134926 -10 38 1.6 1.6 0.00 0.00 0.00 91 1032.3
20180119134425 -10 37 1.6 1.6 0.00 0.00 0.00 91 1032.0
20180119133924 -10 9 1.6 1.6 0.00 0.00 0.00 90 1032.0
20180119133423 -10 9 0.0 1.6 0.00 0.00 0.00 90 1032.0
20180119132923 -10 9 0.0 1.6 0.00 0.00 0.00 90 1032.0
20180119132421 -10 75 1.6 1.6 0.00 0.00 0.00 91 1032.0
20180119131921 -10 75 1.6 1.6 0.00 0.00 0.00 91 1032.0
20180119131348 -10 79 1.6 1.6 0.00 0.00 0.00 91 1032.0
20180119130847 -10 60 0.0 1.6 0.00 0.00 0.00 91 1032.0
20180119130346 -10 60 0.0 1.6 0.00 0.00 0.00 90 1032.0
20180119125845 -10 60 0.0 1.6 0.00 0.00 0.00 90 1032.0
20180119125345 -10 60 0.0 1.6 0.00 0.00 0.00 90 1032.3
20180119124843 -10 60 1.6 1.6 0.00 0.00 0.00 90 1032.0
20180119124311 -10 61 0.0 1.6 0.00 0.00 0.00 91 1032.0
20180119123739 -10 60 0.0 1.6 0.00 0.00 0.00 91 1032.0
20180119123136 -10 60 0.0 1.6 0.00 0.00 0.00 91 1032.0
20180119122635 -10 60 0.0 1.6 0.00 0.00 0.00 90 1032.0
20180119122134 -10 60 0.0 1.6 0.00 0.00 0.00 90 1032.0
20180119121633 -10 61 0.0 1.6 0.00 0.00 0.00 90 1031.7
20180119121131 -10 60 0.0 1.6 0.00 0.00 0.00 90 1031.7
20180119120630 -10 60 0.0 1.6 0.00 0.00 0.00 91 1031.7
20180119120130 -10 60 1.6 1.6 0.00 0.00 0.00 91 1031.7
20180119115628 -10 60 0.0 1.6 0.00 0.00 0.00 91 1031.3
20180119115128 -10 60 0.0 1.6 0.00 0.00 0.00 90 1031.3
20180119114556 -10 60 0.0 1.6 0.00 0.00 0.00 90 1031.3
20180119114054 -10 61 0.0 1.6 0.00 0.00 0.00 90 1031.3
20180119113553 -10 60 1.6 1.6 0.00 0.00 0.00 90 1031.3
20180119113052 -10 60 0.0 1.6 0.00 0.00 0.00 90 1031.3
20180119112520 -10 60 0.0 1.6 0.00 0.00 0.00 90 1031.3
20180119112019 -10 60 0.0 1.6 0.00 0.00 0.00 90 1031.3
20180119111518 -10 60 0.0 1.6 0.00 0.00 0.00 90 1031.3
20180119111017 -10 60 0.0 1.6 0.00 0.00 0.00 90 1031.3
20180119110516 -10 60 1.6 1.6 0.00 0.00 0.00 90 1031.3
20180119110015 -10 60 0.0 1.6 0.00 0.00 0.00 90 1031.3
20180119105514 -10 60 0.0 1.6 0.00 0.00 0.00 90 1031.0
20180119104942 -10 60 0.0 1.6 0.00 0.00 0.00 90 1031.0
20180119104440 -10 61 1.6 1.6 0.00 0.00 0.00 90 1031.0
20180119103939 -10 60 0.0 0.0 0.00 0.00 0.00 89 1031.0
20180119103408 -10 61 0.0 0.0 0.00 0.00 0.00 89 1030.6
20180119102835 -10 60 0.0 1.6 0.00 0.00 0.00 89 1030.6
20180119102333 -10 60 0.0 1.6 0.00 0.00 0.00 89 1031.0
20180119101801 -10 61 0.0 1.6 0.00 0.00 0.00 89 1031.0
20180119101300 -10 60 1.6 1.6 0.00 0.00 0.00 89 1031.0
20180119100759 -10 60 1.6 1.6 0.00 0.00 0.00 89 1031.0
20180119100258 -10 60 0.0 1.6 0.00 0.00 0.00 89 1031.0
20180119095757 -10 60 0.0 1.6 0.00 0.00 0.00 89 1031.0
20180119095256 -10 60 0.0 3.2 0.00 0.00 0.00 89 1031.0
20180119094755 -9 63 0.0 4.8 0.00 0.00 0.00 89 1030.6
20180119094254 -9 63 1.6 4.8 0.00 0.00 0.00 89 1030.6
20180119093753 -9 74 1.6 1.6 0.00 0.00 0.00 89 1030.6
20180119093251 -9 80 0.0 1.6 0.00 0.00 0.00 90 1030.6
20180119092750 -9 82 0.0 1.6 0.00 0.00 0.00 90 1030.6
20180119092249 -10 81 1.6 1.6 0.00 0.00 0.00 90 1031.0
20180119091748 -10 46 0.0 1.6 0.00 0.00 0.00 90 1031.0
20180119091216 -10 47 0.0 1.6 0.00 0.00 0.00 90 1031.0